Location: 22
(39.7117°N, 89.5929°W)
Time: 17:04:35
(UTC-05:00)

BlueWalker 3 - Visible Passes

Search period start: 23 July 2024 00:00
Search period end: 02 August 2024 00:00
Orbit: 480 x 491 km, 53.2° (Epoch: 23 July)

Date Brightness Start Highest point End Pass type
(mag) Time Alt. Az. Time Alt. Az. Time Alt. Az.
29 Jul 4.6 05:23:13 10° SSE 05:24:49 12° SE 05:26:26 10° E visible
30 Jul 4.6 04:57:24 10° SE 04:58:33 11° SE 04:59:43 10° ESE visible
31 Jul 4.8 04:32:14 10° SE 04:32:16 10° SE 04:32:18 10° ESE visible
